Weather History for Francistown, Botswana

Change the Weather History Date:

Monday, May 5, 2014

  Actual Average Record
Temperature  
Mean Temperature 64 °F -  
Max Temperature 84 °F 76 °F 92 °F (2012)
Min Temperature 44 °F 45 °F 44 °F (2012)
Degree Days  
Heating Degree Days 1    
Growing Degree Days 14 (Base 50)    
Moisture  
Dew Point 47 °F    
Average Humidity 49    
Maximum Humidity 87    
Minimum Humidity 19    
Precipitation  
Precipitation 0.00 in - - ()
Sea Level Pressure  
Sea Level Pressure 30.15 in    
Wind  
Wind Speed 4 mph ()    
Max Wind Speed 12 mph    
Max Gust Speed -    
Visibility 6.1 miles    
Events      
Averages and records for this station are not official NWS values.
T = Trace of Precipitation, MM = Missing Value Source: Averaged Metar Reports

Daily Weather History Graph

Daily Weather History Graph

Search for Another Location

Airport:

Trip Planner

Search our weather history database for the weather conditions in past years. The results will help you decide how hot, cold, wet, or windy it might be!

Date:

Astronomy

May. 05, 2014 Rise Set
Actual Time 6:28 AM CAT 5:44 PM CAT
Civil Twilight 6:05 AM CAT 6:07 PM CAT
Nautical Twilight 5:39 AM CAT 6:34 PM CAT
Astronomical Twilight 5:13 AM CAT 7:00 PM CAT
Moon 11:30 AM CAT (5/5) 11:02 PM CAT (5/5)
Length of Visible Light 12h 01m
Length of Day
11h 15m
Waxing Crescent, 34% of the Moon is Illuminated
May 5
Waxing Crescent
May 7
First Quarter
May 14
Full
May 21
Last Quarter
May 28
New

Hourly Weather History & Observations

Time (CAT) Temp. Dew Point Humidity Pressure Visibility Wind Dir Wind Speed Gust Speed Precip Events Conditions
12:00 AM 53.6 °F 46.4 °F 77% 30.15 in - West 3.5 mph - N/A   Clear
1:00 AM 50.0 °F 44.6 °F 82% 30.15 in - Variable 2.3 mph - N/A   Clear
4:00 AM 48.2 °F 44.6 °F 87% 30.12 in - Variable 1.2 mph - N/A   Clear
5:00 AM 48.2 °F 44.6 °F 87% 30.12 in - Calm Calm - N/A   Clear
6:00 AM 46.4 °F 42.8 °F 87% 30.15 in - Variable 2.3 mph - N/A   Clear
7:00 AM 48.2 °F 44.6 °F 87% 30.15 in - North 4.6 mph - N/A   Clear
8:00 AM 61 °F 49 °F 54%  in 6 mi NNE 3.5 mph - -   Clear
8:00 AM 60.8 °F 48.2 °F 63% 30.15 in - NNE 3.5 mph - N/A   Clear
9:00 AM 68.0 °F 50.0 °F 52% 30.18 in - NE 4.6 mph - N/A   Clear
10:00 AM 75.2 °F 51.8 °F 44% 30.18 in - ENE 8.1 mph - N/A   Clear
11:00 AM 81 °F 51 °F 24%  in 6 mi East 6.9 mph - -   Partly Cloudy
11:00 AM 80.6 °F 51.8 °F 37% 30.18 in 6.2 mi East 6.9 mph - N/A   Partly Cloudy
12:00 PM 80.6 °F 48.2 °F 32% 30.15 in 6.2 mi East 8.1 mph - N/A   Partly Cloudy
1:00 PM 82.4 °F 46.4 °F 28% 30.12 in 6.2 mi ESE 11.5 mph - N/A   Partly Cloudy
2:00 PM 82 °F 47 °F 19%  in 6 mi ESE 9.2 mph - -   Partly Cloudy
2:00 PM 82.4 °F 46.4 °F 28% 30.12 in 6.2 mi ESE 9.2 mph - N/A   Partly Cloudy
3:00 PM 84.2 °F 46.4 °F 27% 30.09 in 6.2 mi NNE 5.8 mph - N/A   Partly Cloudy
4:00 PM 82.4 °F 46.4 °F 28% 30.12 in 6.2 mi East 8.1 mph - N/A   Partly Cloudy
5:00 PM 81 °F 46 °F 19%  in 6 mi East 6.9 mph - -   Partly Cloudy
5:00 PM 80.6 °F 46.4 °F 30% 30.12 in - East 6.9 mph - N/A   Clear
6:00 PM 71.6 °F 46.4 °F 41% 30.15 in - SE 6.9 mph - N/A   Clear
7:00 PM 68.0 °F 48.2 °F 49% 30.15 in - SSE 6.9 mph - N/A   Clear
8:00 PM 65 °F 46 °F 39%  in 6 mi SE 8.1 mph - -   Partly Cloudy
8:00 PM 64.4 °F 46.4 °F 52% 30.18 in - SE 8.1 mph - N/A   Clear
9:00 PM 62.6 °F 44.6 °F 52% 30.18 in - SSE 4.6 mph - N/A   Clear
11:00 PM 60.8 °F 42.8 °F 52% 30.18 in - ESE 4.6 mph - N/A   Clear